Terug naar catalogus

IRIDIUM 33 DEB

ActiefPO
NORAD 33850·DEBRIS·🇺🇸 United States

Gelanceerd Sep 14, 1997 vanaf Baikonur Cosmodrome

Loading…

Volgende Passages (komende 24 uur)

TLE

VersSource: Space-Track

Epoch: Sep 14, 2026, 00:28 UTC

1 33850U 97051T   26257.01975066  .00000588  00000-0  17019-3 0  9999
2 33850  86.3350 271.7404 0010941 351.0120  38.3806 14.42833967921218

Volg IRIDIUM 33 DEB in realtime met AllMySat

Download on the App Store